Погода в Джемикенте

Россия / Республика Дагестан     42°14′06″N   48°02′25″E
темп.,
°C
ветер,
м/с
пор.,
м/с
влажн.,
%
обл.,
%
осадки,
мм/ч
давл.,
гПа
погр.,
м
16 апреля, пт
пт1600:00+14юз226051 0.0 101711
03:00+13з226077 0.0 101812
06:00+13з11575 0.0 101923
09:00+18всв22413 0.0 1020692
12:00+19всв43370 0.0 10191114
15:00+19в443865 0.0 1019927
18:00+15всв125494 0.1 102094
21:00+13ю115977 0.2 102028
17 апреля, сб
сб1700:00+12ю11610 0.0 101914
03:00+12ююв12645 0.0 101922
06:00+12ююв116279 0.0 101930
09:00+18вюв344669 0.0 1018482
12:00+20в434224 0.0 1016686
15:00+19св324541 0.0 1016496
18:00+14с3465100 0.0 1018146
21:00+14зсз226642 0.0 102040
18 апреля, вс
вс1800:00+14зсз2265100 0.0 101957
03:00+13ссв1271100 0.0 102056
06:00+12ссз1382100 0.0 1021125
09:00+16с2361100 0.0 1020633
12:00+18ссв3247100 0.1 1018740
15:00+18ссв324397 0.2 1017703
18:00+15ссв115189 0.1 101767
21:00+13зюз1174100 0.4 101740
19 апреля, пн
пн1900:00+13сз3571100 0.1 1018110
03:00+13ююз1174100 0.1 101710
06:00+14з1171100 0.0 101825
09:00+18ссв3350100 0.0 1018463
12:00+20св434047 0.0 1018774
15:00+20св324049 0.0 1017663
18:00+16всв225094 0.0 101771
21:00+14ююв115549 0.0 101719
20 апреля, вт
вт2000:00+14ююв225998 0.0 101523
03:00+13ююв1167100 0.0 101430
06:00+14ю2365100 0.0 101365
09:00+19вюв3546100 0.0 1012480
12:00+20в444388 0.0 1010519
15:00+19в3448100 0.0 1008426
18:00+15в2364100 0.0 1006121
21:00+13ссв1173100 0.0 100783